Other Surface Observations
Issued by NWS

Home | Current Version | Previous Version | Text Only | Print | Product List | Glossary On
Versions: 1 2 3 4 5 6 7 8 9 10 11 12 13 14 15 16 17 18 19 20 21 22 23 24 25 26 27 28 29 30 31 32 33 34 35 36 37 38 39 40 41 42 43 44 45 46 47 48 49 50
000
SXUS52 KTAE 140718
OSOTAE
OSOTAE
North Florida/South Alabama/Southwest Georgia Weather Roundup
National Weather Service Tallahassee Florida
300 AM EDT MON JUL 14 2014

Note: "fair" indicates few or no clouds below 12,000 feet with no
significant weather and/or obstructions to visibility.

!FLZ017-115-028-034-025-140800
...North Florida...

CITY           SKY/WX    TMP DP  RH WIND       PRES   REMARKS
TALLAHASSEE    CLEAR     74  70  87 CALM      30.07S
APALACHICOLA   CLEAR     77  72  84 CALM      30.05F
PERRY          CLEAR     73  72  94 CALM      30.08S
CROSS CITY       N/A     76  73  91 CALM      30.07F
HOMERVILLE     FAIR      77  73  88 CALM      30.08F
JACKSONVILLE   PTCLDY    75  75 100 CALM      30.07S
$$

!FLZ112-006-005-002-011-140800
...Florida Panhandle...

CITY           SKY/WX    TMP DP  RH WIND       PRES   REMARKS
MARIANNA       CLEAR     76  74  93 CALM      30.06S
BONIFAY        FAIR      72  71  97 CALM      30.06F FOG
PANAMA CITY NW FAIR      75  71  87 CALM      30.04F
TYNDALL AFB    CLEAR     80  76  85 SW5       30.05F
TYND DRONE APT FAIR      81  76  85 VRB3      30.03F
DE FUNIAK SPR  FAIR      74  73  96 CALM      30.06F
EGLIN AFB      PTCLDY    77  73  88 N1        30.05S
DESTIN         PTCLDY    83  74  74 VRB3      30.05S
HURLBURT       PTCLDY    82  70  65 N2        30.03F
CRESTVIEW      CLEAR     73  72  96 CALM      30.07F
PENSACOLA      CLEAR     76  73  91 CALM      30.04F
$$

!ALZ063-066-140800
...South Alabama...

CITY           SKY/WX    TMP DP  RH WIND       PRES   REMARKS
DOTHAN         CLEAR     76  73  91 SW3       30.10F
OZARK CAIRNS   CLEAR     76  74  95 SW5       30.06F
FT RUCKER HELI CLEAR     77  73  87 CALM      30.05F
RUCKER HELI 3  FAIR      75  73  93 SW5       30.09F
RUCKER HELI 2  FAIR      75  73  93 CALM      30.06F
FLORALA APT    CLEAR     75  73  93 CALM      30.08F
ANDALUSIA      CLEAR     78  73  84 CALM      30.06F
TROY           CLEAR     74  71  91 S3        30.07F
EUFALA         FAIR      77  72  84 SW3       30.05F
MOBILE         CLEAR     74  74 100 CALM      30.05F
$$

!GAZ120>161-140800
...Southwest and South Central Georgia...

CITY           SKY/WX    TMP DP  RH WIND       PRES   REMARKS
THOMASVILLE    FAIR      77  77 100 CALM      30.09S
BAINBRIDGE     CLEAR     79  77  94 CALM      30.07S
MOODY AFB      PTCLDY    76  73  90 VRB1      30.09R
VALDOSTA       MOCLDY    79  72  79 S5        30.09R
MOULTRIE       PTCLDY    77  73  88 CALM      30.08S
BLAKELY        CLEAR     77  73  88 CALM      30.07S
ALBANY         CLEAR     76  73  91 SW3       30.08F
TIFTON         CLOUDY    75  73  92 CALM      30.08S
FITZGERALD     PTSUNNY   79  74  86 S3        30.10S
CORDELE        FAIR      79  73  81 SW5       30.06F
AMERICUS       FAIR      75  72  88 CALM      30.08S
$$

!GMZ750-755-770-775-140800
...Coastal and Buoy Obs...

STATION/POSITION TIME  TEMP    WIND        PRES    VSBY  WAVE
                       AIR SEA DIR/SP/G                  HT/PER
                 (UTC) (F)     (DEG/KT/KT) (MB)    (MI)  (FT/S)
KEATON BEACH     0700   76     110/  5/  6 1018.3S
CEDAR KEY        0700   81     220/  9/ 12 1018.7F
C TOWER          0700   82     190/  4/  5 1017.7F
APALACHICOLA BUO 0700   83 86  140/  4/  4 1017.8F         1/ 9
PANAMA CITY BUOY 0605   83 85  250/  2/  4 1017.4F         2/ 9
MOBILE BUOY      0554   84 87  210/ 10/ 12 1017.4
ORANGE BCH AL BU 0700   84 86  190/ 10/ 12 1017.2F         1/ 3
$$



USA.gov is the U.S. government's official web portal to all federal, state and local government web resources and services.